When you browse on this site, cookies collect data to enhance your experience and personalize the content and advertising you see.
Visit our Privacy Policy to learn more. By continuing to use the site, you agree to this use of cookies and data.
  • In Czech Republic
  • List of Countries
  • For 7 days
  • Water Temperature
  • Satellite Maps
  • Weather Map
  • Weather Widgets
  • user-avatar
    Login

    Hourly Weather Nakhchivan

    Today, 25 June, Tuesday

    Time Temperature Precipitation Wind Pressure Humidity
    00:00 +30°C° 0 mm 2 mps 688 mmHg 46%
    01:00 +29°C° 0 mm 2 mps 688 mmHg 48%
    02:00 +28°C° 0 mm 1 mps 688 mmHg 50%
    03:00 +28°C° 0 mm 1 mps 687 mmHg 51%
    04:00 +28°C° 0 mm 1 mps 688 mmHg 50%
    05:00 +28°C° 0 mm 1 mps 688 mmHg 49%
    06:00 +28°C° 0 mm 1 mps 688 mmHg 49%
    07:00 +29°C° 0 mm 1 mps 688 mmHg 46%
    08:00 +30°C° 0 mm 2 mps 688 mmHg 43%
    09:00 +32°C° 0 mm 2 mps 688 mmHg 39%
    10:00 +33°C° 0 mm 1 mps 688 mmHg 36%
    11:00 +34°C° 0 mm 1 mps 688 mmHg 33%
    12:00 +35°C° 0 mm 1 mps 689 mmHg 30%
    13:00 +37°C° 0 mm 2 mps 688 mmHg 27%
    14:00 +38°C° 0 mm 2 mps 688 mmHg 24%
    15:00 +39°C° 0 mm 2 mps 688 mmHg 20%
    16:00 +39°C° 0 mm 3 mps 688 mmHg 22%
    17:00 +38°C° 0 mm 4 mps 688 mmHg 23%
    18:00 +38°C° 0 mm 4 mps 688 mmHg 24%
    19:00 +36°C° 0 mm 4 mps 688 mmHg 27%
    20:00 +35°C° 0 mm 4 mps 688 mmHg 30%
    21:00 +33°C° 0 mm 4 mps 689 mmHg 33%
    22:00 +31°C° 0 mm 3 mps 689 mmHg 33%
    23:00 +31°C° 0 mm 2 mps 688 mmHg 34%

    Tomorrow, 26 June, Wednesday

    Time Temperature Precipitation Wind Pressure Humidity
    00:00 +30°C° 0 mm 2 mps 688 mmHg 35%
    01:00 +29°C° 0 mm 1 mps 688 mmHg 37%
    02:00 +29°C° 0 mm 1 mps 688 mmHg 38%
    03:00 +28°C° 0 mm 1 mps 688 mmHg 40%
    04:00 +28°C° 0 mm 1 mps 688 mmHg 39%
    05:00 +28°C° 0 mm 1 mps 689 mmHg 38%
    06:00 +28°C° 0 mm 1 mps 689 mmHg 38%
    07:00 +30°C° 0 mm 1 mps 689 mmHg 36%
    08:00 +31°C° 0 mm 1 mps 689 mmHg 33%
    09:00 +32°C° 0 mm 1 mps 689 mmHg 31%
    10:00 +33°C° 0 mm 1 mps 689 mmHg 28%
    11:00 +34°C° 0 mm 1 mps 689 mmHg 26%
    12:00 +35°C° 0 mm 1 mps 689 mmHg 23%
    13:00 +37°C° 0 mm 2 mps 689 mmHg 21%
    14:00 +38°C° 0 mm 3 mps 688 mmHg 20%
    15:00 +39°C° 0 mm 3 mps 688 mmHg 18%
    16:00 +38°C° 0 mm 4 mps 688 mmHg 19%
    17:00 +38°C° 0 mm 4 mps 688 mmHg 20%
    18:00 +37°C° 0 mm 5 mps 687 mmHg 21%
    19:00 +36°C° 0 mm 4 mps 688 mmHg 24%
    20:00 +34°C° 0 mm 3 mps 688 mmHg 27%
    21:00 +33°C° 0 mm 3 mps 688 mmHg 30%
    22:00 +31°C° 0 mm 2 mps 688 mmHg 32%
    23:00 +31°C° 0 mm 2 mps 687 mmHg 34%

    Day after tomorrow, 27 June, Thursday

    Time Temperature Precipitation Wind Pressure Humidity
    00:00 +30°C° 0 mm 2 mps 687 mmHg 36%
    01:00 +29°C° 0 mm 2 mps 687 mmHg 39%
    02:00 +29°C° 0 mm 2 mps 687 mmHg 41%
    03:00 +28°C° 0 mm 2 mps 687 mmHg 43%
    04:00 +28°C° 0 mm 2 mps 687 mmHg 45%
    05:00 +27°C° 0 mm 2 mps 687 mmHg 47%
    06:00 +27°C° 0 mm 2 mps 687 mmHg 49%
    07:00 +28°C° 0 mm 2 mps 687 mmHg 46%
    08:00 +29°C° 0 mm 2 mps 687 mmHg 43%
    09:00 +30°C° 0 mm 2 mps 687 mmHg 40%
    10:00 +31°C° 0 mm 2 mps 686 mmHg 36%
    11:00 +32°C° 0 mm 2 mps 686 mmHg 32%
    12:00 +35°C° 0 mm 2 mps 686 mmHg 29%
    13:00 +35°C° 0 mm 2 mps 685 mmHg 27%
    14:00 +36°C° 0 mm 3 mps 685 mmHg 26%
    15:00 +37°C° 0 mm 3 mps 685 mmHg 24%
    16:00 +35°C° 0.2 mm 4 mps 684 mmHg 30%
    17:00 +33°C° 0.2 mm 5 mps 684 mmHg 37%
    18:00 +30°C° 0.2 mm 6 mps 683 mmHg 43%
    19:00 +30°C° 0.3 mm 4 mps 684 mmHg 44%
    20:00 +29°C° 0.3 mm 3 mps 684 mmHg 45%
    21:00 +29°C° 0.3 mm 2 mps 684 mmHg 46%
    22:00 +28°C° 0.1 mm 2 mps 684 mmHg 48%
    23:00 +27°C° 0.1 mm 2 mps 684 mmHg 50%

    28 June, Friday

    Time Temperature Precipitation Wind Pressure Humidity
    00:00 +26°C° 0.1 mm 1 mps 683 mmHg 52%
    01:00 +26°C° 0.2 mm 2 mps 683 mmHg 54%
    02:00 +25°C° 0.2 mm 2 mps 683 mmHg 56%
    03:00 +25°C° 0.2 mm 2 mps 682 mmHg 58%
    04:00 +24°C° 0.2 mm 1 mps 682 mmHg 58%
    05:00 +24°C° 0.2 mm 1 mps 682 mmHg 58%
    06:00 +24°C° 0.2 mm 1 mps 682 mmHg 58%
    07:00 +25°C° 0 mm 1 mps 682 mmHg 53%
    08:00 +27°C° 0 mm 1 mps 681 mmHg 48%
    09:00 +28°C° 0 mm 1 mps 681 mmHg 43%
    10:00 +30°C° 0 mm 1 mps 681 mmHg 39%
    11:00 +31°C° 0 mm 1 mps 681 mmHg 35%
    12:00 +33°C° 0 mm 1 mps 681 mmHg 31%
    13:00 +35°C° 0 mm 2 mps 681 mmHg 29%
    14:00 +36°C° 0 mm 2 mps 680 mmHg 27%
    15:00 +37°C° 0 mm 2 mps 680 mmHg 25%
    16:00 +35°C° 0.2 mm 3 mps 680 mmHg 31%
    17:00 +33°C° 0.2 mm 4 mps 680 mmHg 37%
    18:00 +30°C° 0.2 mm 5 mps 680 mmHg 42%
    19:00 +28°C° 0.6 mm 5 mps 680 mmHg 49%
    20:00 +27°C° 0.6 mm 5 mps 681 mmHg 56%
    21:00 +25°C° 0.6 mm 5 mps 681 mmHg 63%
    22:00 +25°C° 0.1 mm 3 mps 681 mmHg 62%
    23:00 +25°C° 0.1 mm 2 mps 681 mmHg 61%

    29 June, Saturday

    Time Temperature Precipitation Wind Pressure Humidity
    00:00 +25°C° 0.1 mm 1 mps 681 mmHg 61%
    01:00 +25°C° 0 mm 1 mps 681 mmHg 62%
    02:00 +24°C° 0 mm 2 mps 681 mmHg 64%
    03:00 +24°C° 0 mm 2 mps 681 mmHg 66%
    04:00 +24°C° 0 mm 2 mps 681 mmHg 65%
    05:00 +24°C° 0 mm 1 mps 681 mmHg 65%
    06:00 +24°C° 0 mm 1 mps 681 mmHg 64%
    07:00 +25°C° 0 mm 1 mps 680 mmHg 60%
    08:00 +26°C° 0 mm 1 mps 680 mmHg 55%
    09:00 +27°C° 0 mm 1 mps 680 mmHg 50%
    10:00 +29°C° 0 mm 1 mps 680 mmHg 46%
    11:00 +30°C° 0 mm 1 mps 680 mmHg 41%
    12:00 +31°C° 0 mm 1 mps 680 mmHg 37%
    13:00 +32°C° 0 mm 1 mps 680 mmHg 33%
    14:00 +34°C° 0 mm 1 mps 680 mmHg 30%
    15:00 +35°C° 0 mm 1 mps 680 mmHg 27%
    16:00 +35°C° 0 mm 1 mps 680 mmHg 27%
    17:00 +34°C° 0 mm 1 mps 680 mmHg 27%
    18:00 +34°C° 0 mm 1 mps 680 mmHg 27%
    19:00 +34°C° 0.1 mm 1 mps 681 mmHg 29%
    20:00 +34°C° 0.1 mm 2 mps 681 mmHg 31%
    21:00 +32°C° 0.1 mm 2 mps 682 mmHg 34%
    22:00 +30°C° 0.2 mm 2 mps 681 mmHg 41%
    23:00 +28°C° 0.2 mm 3 mps 681 mmHg 49%

    30 June, Sunday

    Time Temperature Precipitation Wind Pressure Humidity
    00:00 +26°C° 0.2 mm 4 mps 681 mmHg 57%
    01:00 +26°C° 0 mm 4 mps 681 mmHg 57%
    02:00 +26°C° 0 mm 4 mps 681 mmHg 58%
    03:00 +25°C° 0 mm 3 mps 681 mmHg 59%
    04:00 +25°C° 0 mm 3 mps 681 mmHg 60%
    05:00 +25°C° 0 mm 3 mps 681 mmHg 61%
    06:00 +24°C° 0 mm 2 mps 681 mmHg 62%
    07:00 +25°C° 0 mm 3 mps 681 mmHg 57%
    08:00 +26°C° 0 mm 3 mps 681 mmHg 53%
    09:00 +27°C° 0 mm 3 mps 681 mmHg 48%
    10:00 +29°C° 0 mm 3 mps 681 mmHg 44%
    11:00 +30°C° 0 mm 3 mps 681 mmHg 40%
    12:00 +31°C° 0 mm 2 mps 681 mmHg 37%
    13:00 +32°C° 0 mm 5 mps 681 mmHg 37%
    14:00 +32°C° 0 mm 7 mps 680 mmHg 37%
    15:00 +32°C° 0 mm 10 mps 680 mmHg 37%
    16:00 +31°C° 0.1 mm 8 mps 680 mmHg 39%
    17:00 +29°C° 0.1 mm 7 mps 680 mmHg 41%
    18:00 +28°C° 0.1 mm 5 mps 680 mmHg 44%
    19:00 +27°C° 0.1 mm 6 mps 680 mmHg 48%
    20:00 +26°C° 0.1 mm 7 mps 681 mmHg 52%
    21:00 +23°C° 0.1 mm 8 mps 681 mmHg 56%
    22:00 +22°C° 0 mm 7 mps 681 mmHg 60%
    23:00 +21°C° 0 mm 5 mps 681 mmHg 65%
    Show more